Regional Weather Roundup
Issued by NWS

Home | Current Version | Previous Version | Text Only | Print | Product List | Glossary Off
Versions: 1 2 3 4 5 6 7 8 9 10 11 12 13 14 15 16 17 18 19 20 21 22 23 24 25 26 27

000
ASUS45 KSLC 210610
RWRUT

UTAH REGIONAL WEATHER ROUNDUP
NATIONAL WEATHER SERVICE SALT LAKE CITY UT
1100 PM MST FRI JAN 20 2017

UTZ001>011-023>025-210700-

NORTHERN UTAH

CITY           SKY/WX    TMP DP  RH WIND       PRES   REMARKS
BRIGHAM CITY     N/A     30  28  91 N5        29.33F WCI  25
HILL AFB       LGT SNOW  32  30  93 E10       29.30F FOG     WCI  24
LOGAN          CLOUDY    27  26  96 NE3       29.34S FOG
OGDEN          LGT SNOW  32  31  96 E6        29.31F FOG     WCI  26
SALT LAKE CITY CLOUDY    34  31  88 SE9       29.31F WCI  27
TOOELE VALLEY  CLOUDY    32  32 100 NW6       29.30F WCI  26
WENDOVER       CLOUDY    25  23  93 CALM      29.30F
HEBER CITY     LGT SNOW  28  27  93 W5        29.32F WCI  23
WEST JORDAN    CLOUDY    33  33 100 S12       29.32S WCI  24

$$

UTZ011>015-024>027-210700-

CENTRAL/NORTHEAST UTAH

CITY           SKY/WX    TMP DP  RH WIND       PRES   REMARKS
PROVO AIRPORT  CLOUDY    36  28  73 SE8       29.33F WCI  30
MOAB/CANYONLAN CLOUDY    36  33  89 SE10      29.41F WCI  28
DELTA          CLOUDY    32  32 100 CALM      29.31R
PRICE          LGT SNOW  29  29 100 E7        29.38F FOG     WCI  22
RICHFIELD      MOCLDY    32  32 100 CALM      29.34
ROOSEVELT      CLOUDY    23  19  86 CALM      29.46F FOG
VERNAL         LGT SNOW  22  19  89 S3        29.44F FOG

$$

UTZ013>016-019>022-027-210700-

SOUTHERN UTAH

CITY           SKY/WX    TMP DP  RH WIND       PRES   REMARKS
BRYCE CANYON   SNOW      26  24  92 SE15G29   29.32F VSB 1/2 WCI  14
CEDAR CITY     LGT SNOW  31  30  96 SW7       29.26F FOG     WCI  24
MILFORD        LGT SNOW  34  32  92 S10       29.27F FOG     WCI  26
ST GEORGE      CLOUDY    41  36  81 S3        29.35F
HANKSVILLE     MOCLDY    36  32  87 MISG      29.41F
KANAB          CLOUDY    34  34 100 CALM      29.39
BLANDING       CLOUDY    31  31 100 SE14G21   29.53F VSB 1   WCI  20

$$

REGIONAL REPORTS     COLORADO/ARIZONA

CITY           SKY/WX    TMP DP  RH WIND       PRES   REMARKS
CRAIG, CO      CLOUDY    16  10  77 CALM      29.46R
GRAND JUNCTION CLOUDY    34  30  85 E7        29.45F WCI  28
RIFLE, CO      CLOUDY    28  25  88 S3        29.48S
MONTROSE, CO   CLOUDY    32  23  69 E5        29.50F WCI  27
CORTEZ, CO     LGT SNOW  31  31 100 VRB5      29.48F FOG     WCI  26
COLORADO CITY  CLOUDY    36  34  93 E9        29.36F WCI  29
PAGE, AZ       LGT RAIN  39  31  72 S3        29.37F
GRAND CANYON   LGT SNOW  30  30 100 S12       29.38S FOG     WCI  20
KINGMAN, AZ    LGT RAIN  42  39  89 SW30G38   29.38S
FLAGSTAFF, AZ  SNOW      30  29  96 SW17      29.40F VSB 1/2 WCI  18

$$

REGIONAL REPORTS    NEVADA/IDAHO/WYOMING

CITY           SKY/WX    TMP DP  RH WIND       PRES   REMARKS
LAS VEGAS, NV  MOCLDY    48  34  58 SW18G25   29.29F
ELY, NY        CLOUDY    28  25  88 S8        29.25F WCI  20
ELKO, NV       LGT SNOW  29  27  92 CALM      29.25R FOG
POCATELLO, ID  FLURRIES  26  23  88 NE8       29.32F WCI  18
BURLEY, ID     LGT SNOW  31  28  89 NW6       29.26F FOG     WCI  25
FORT BRIDGER,  CLOUDY    12  12 100 NW3       29.38S FOG
EVANSTON, WY   CLOUDY    18  12  77 E12       29.32S WCI   5
ROCK SPRINGS,  CLOUDY    23  16  74 SE13      29.37F WCI  11

$$




USA.gov is the U.S. government's official web portal to all federal, state and local government web resources and services.